This demonstration page uses our WeatherBlox Daily Observations layout. Learn more.

41.55636, -103.73856

Hourly Observations for August 24, 2019

Temp ( °F °C ) Dew Point ( °F °C ) Humidity (%) Winds ( mph kmh ) Pressure ( in mb ) Visibility ( mi km ) Precip ( " mm )
12:58 am 00:58 Mostly Cloudy with Nearby Thunderstorms 71 21.5 62 16.4 73 73 WNW 12 19 29.96 1015 10 16.0934 0 0
1:58 am 01:58 Mostly Cloudy with Thunderstorms 58 14.4 54 12.3 87 87 ESE 6 9 29.99 1016 8 12.87472 0.17 4.318
2:58 am 02:58 Cloudy with Light Showers 65 18.1 48 9.1 56 56 WNW 5 7 29.92 1013 10 16.0934 0.04 1.016
3:58 am 03:58 Windy with Rain Showers Likely 60 15.4 53 11.5 78 78 SSE 22 35 29.94 1014 10 16.0934 0.01 0.254
4:59 am 04:59 Mostly Cloudy with Light Showers 59 15.1 53 11.5 79 79 ESE 14 22 29.95 1014 10 16.0934 0.01 0.254
5:58 am 05:58 Mostly Cloudy 58 14.7 53 11.7 82 82 Calm 29.97 1015 10 16.0934 0 0
6:58 am 06:58 Partly Cloudy 58 14.6 52 11.3 81 81 SE 7 11 29.93 1014 10 16.0934 0 0
7:58 am 07:58 Mostly Cloudy 58 14.5 52 11.3 81 81 SW 8 13 29.94 1014 10 16.0934 0 0
8:58 am 08:58 Mostly Cloudy 57 14.1 52 11.2 83 83 S 25 41 29.89 1012 10 16.0934 0.01 0.254
9:58 am 09:58 Mostly Cloudy 58 14.2 52 11 81 81 S 12 19 29.95 1014 10 16.0934 0 0
10:58 am 10:58 Clear 56 13.5 53 11.5 88 88 S 18 30 29.91 1013 10 16.0934 0 0
11:58 am 11:58 Clear 57 13.9 52 11.3 84 84 S 14 22 29.89 1012 10 16.0934 0 0
12:58 pm 12:58 Mostly Sunny 59 14.8 54 12.1 84 84 N 5 7 29.92 1013 10 16.0934 0 0
1:58 pm 13:58 Mostly Cloudy 60 15.5 55 12.8 84 84 S 10 17 29.96 1015 10 16.0934 0 0
2:58 pm 14:58 Cloudy 61 16.1 57 13.7 86 86 S 15 24 29.94 1014 10 16.0934 0 0
3:58 pm 15:58 Partly Cloudy 65 18.3 58 14.3 78 78 S 20 31 29.92 1013 10 16.0934 0 0
4:58 pm 16:58 Sunny 68 19.9 57 14.1 69 69 S 14 22 29.91 1013 10 16.0934 0 0
5:58 pm 17:58 Sunny 71 21.7 58 14.3 63 63 SW 8 13 29.91 1013 10 16.0934 0 0
6:58 pm 18:58 Sunny 73 23 56 13.6 56 56 SSW 9 15 29.89 1012 10 16.0934 0 0
7:58 pm 19:58 Mostly Sunny 77 24.9 55 12.5 46 46 W 7 11 29.87 1012 10 16.0934 0 0
8:58 pm 20:58 Sunny 79 25.9 50 9.8 36 36 NW 9 15 29.86 1011 10 16.0934 0 0
9:58 pm 21:58 Sunny 80 26.4 50 9.8 35 35 NNE 9 15 29.85 1011 10 16.0934 0 0
10:58 pm 22:58 Sunny 80 26.5 50 10.2 36 36 NNE 5 7 29.85 1011 10 16.0934 0 0
11:58 pm 23:58 Sunny 79 26.2 49 9.4 35 35 E 3 6 29.85 1011 10 16.0934 0 0

Powered by AerisWeather